OBJECT V, 64547

Orbit data source: Space-Track

You're viewing an uncataloged RSO

Recently launched and/or uncataloged RSOs may have evolving metadata. Metadata may include the following, but is not limited to: Owner, Manufacturer, Bus, Motor, and Mission.

OBJECT V, 64547 is a satellite in SSO that was launched on Mon, 23 Jun 2025 UTC via an FALCON 9 launch vehicle from the Air Force Western Test Range (AFWTR). Unknown objects in Earth's orbit typically refer to objects detected orbiting the Earth but have not yet been identified or cataloged. These objects could be anything from previously untracked satellites, spent rocket stages, debris from satellite collisions, or even natural meteoroids temporarily captured by Earth's gravity.

Loading next visibility...
Identifier
64547, 2025-135V
Orbit
SSO
Country
Flag of TBDTBD
Related business
None
Manufacturer
Unknown
Mission
Operational Commercial Imaging
Bus & Motor
Unknown
Mass
Unknown
Launch date (UTC)
2025-06-23 (1 year ago)
Launch vehicle
FALCON 9
Launch site
Air Force Western Test Range (AFWTR)
Object type
Unknown
Shape & HBR
Box, 0.2 m
Radar Cross Section
0.035 m², Medium (>0.1 m² and < 1m²)

Expand to show TLE details & history
Last TLE update: 5 hours ago

TLE from 5 hours ago
0 OBJECT V
1 64547U 25135V   26221.84045152  .00004792  00000-0  19004-3 0  9993
2 64547  97.4664 337.4934 0002093  82.1364 278.0112 15.25857950 63103
Epoch: 2026-08-09T20:10Z
TLE epoch observation values (Epoch: 2026-08-09T20:10:15.011Z)
Latitude
0.00002°
Longitude
76.59918°
Altitude
491.107 km
Speed
7.619 km/s
True Right ascension
22h 29m 58s
True Declination
0° 00' 00"
Sunlit
Object was in full shadow at epoch
Visualization orbit readout
Latitude
Unknown
Longitude
Unknown
Altitude
Unknown
Speed
Unknown
Apparent Right ascension
Unknown
Apparent Declination
Unknown
Sunlit
N/A
Visualization observer readout
Local Sidereal Time
15:34:55
Azimuth
Unknown
Elevation
Unknown
Doppler factor
Unknown
Orbital elements
Apogee altitude
486.607 km
Perigee altitude
483.735 km
Semi-major axis
6,863.308 km
Eccentricity
0.00021
Inclination
97.4664°
RAAN
337.4934°
Arg. of periapsis
82.1364°
True anomaly
277.98745°
Mean anomaly
278.0112°
Eccentric anomaly
277.99932°
Mean motion
3.81718 °/min
Orbital period
94.31 mins
BSTAR
0.00019004
Loading maneuver chart data...
Computing Atmospheric mass density...
Loading historical data...
Loading historical data...
Loading historical data...
Loading historical data...
Loading historical data...
Loading historical data...
Loading historical data...

Documentation

Showing up to 5 results
|